EW1065 Weather Reports


time (UTC)temp
C
wind
direction
speed
KPH
gust
KPH
rain 1hr
cm
rain 24hr
cm
rain mn
cm
humidity
%
barometer
mb
20260906105519 22 0.0 3.2 0.00 0.33 0.00 98 1014.0
20260906104519 22 0.0 1.6 0.00 0.33 0.00 99 1014.0
20260906103519 22 0.0 1.6 0.00 0.33 0.00 99 1014.0
20260906102519 22 0.0 0.0 0.00 0.33 0.00 99 1014.0
20260906101559 22 0.0 1.6 0.00 0.33 0.00 99 1013.9
20260906100519 22 0.0 3.2 0.00 0.33 0.00 99 1013.7
20260906095559 21 0.0 1.6 0.00 0.33 0.00 99 1013.6
20260906094519 21 0.0 1.6 0.00 0.33 0.00 99 1013.5
20260906093559 21 0.0 0.0 0.00 0.33 0.00 99 1013.4
20260906092519 21 0.0 0.0 0.00 0.51 0.00 98 1013.2
20260906091519 21 0.0 0.0 0.00 1.09 0.00 98 1013.3
20260906090519 21 0.0 0.0 0.00 1.37 0.00 98 1013.3
20260906085519 21 0.0 0.0 0.00 1.37 0.00 98 1013.3
20260906084519 21 0.0 0.0 0.00 1.37 0.00 98 1013.3
20260906083559 21 0.0 0.0 0.00 1.37 0.00 98 1013.3
20260906082519 21 0.0 0.0 0.00 1.37 0.00 98 1013.3
20260906081519 21 0.0 0.0 0.00 1.37 0.00 98 1013.2
20260906080519 22 0.0 0.0 0.00 1.37 0.00 98 1013.2
20260906075519 21 0.0 0.0 0.00 1.37 0.00 98 1013.3
20260906074519 21 0.0 0.0 0.00 1.37 0.00 98 1013.3
20260906073519 21 0.0 0.0 0.00 1.37 0.00 98 1013.2
20260906072519 22 0.0 0.0 0.00 1.37 0.00 98 1013.2
20260906071519 22 0.0 0.0 0.00 1.37 0.00 98 1013.2
20260906070559 22 0.0 0.0 0.00 1.37 0.00 98 1013.3
20260906065519 22 0.0 0.0 0.00 1.37 0.00 98 1013.3
20260906064519 22 0.0 0.0 0.00 1.37 0.00 98 1013.3
20260906063519 22 0.0 0.0 0.00 1.37 0.00 98 1013.3
20260906062559 22 0.0 0.0 0.00 1.37 0.00 98 1013.4
20260906061519 22 0.0 0.0 0.00 1.37 0.00 98 1013.7
20260906060519 22 0.0 0.0 0.00 1.37 0.00 97 1013.8
20260906055519 22 0.0 0.0 0.00 1.37 0.00 97 1013.6
20260906054519 22 0.0 0.0 0.00 1.37 0.00 97 1013.5
20260906053519 22 0.0 0.0 0.00 1.37 0.00 97 1013.4
20260906052519 22 0.0 0.0 0.00 1.37 0.00 97 1013.4
20260906051519 23 0.0 0.0 0.00 1.37 0.00 97 1013.5
20260906050519 23 0.0 0.0 0.00 1.37 0.00 96 1013.5
20260906045519 23 0.0 0.0 0.00 1.37 0.00 96 1013.5
20260906044519 23 0.0 0.0 0.00 1.37 0.00 96 1013.4
20260906043559 23 0.0 0.0 0.00 1.37 0.00 96 1013.3
20260906042519 23 0.0 0.0 0.00 1.37 0.00 96 1012.9
20260906041519 23 0.0 0.0 0.00 1.37 0.00 96 1012.9
20260906040519 23 0.0 0.0 0.00 1.37 0.00 95 1012.8
20260906035559 23 0.0 0.0 0.00 1.37 1.37 95 1012.9
20260906034519 23 0.0 0.0 0.00 1.37 1.37 95 1012.9
20260906033519 23 0.0 0.0 0.00 1.37 1.37 95 1012.7
20260906032559 24 0.0 0.0 0.00 1.37 1.37 95 1012.7
20260906031519 23 0.0 0.0 0.00 1.37 1.37 95 1012.6
20260906030559 23 0.0 0.0 0.00 1.37 1.37 96 1012.6
20260906025519 23 0.0 0.0 0.00 1.37 1.37 96 1012.7
20260906024519 24 0.0 0.0 0.00 1.37 1.37 96 1012.4
20260906023519 24 0.0 0.0 0.00 1.37 1.37 95 1012.4
20260906022559 24 0.0 0.0 0.00 1.37 1.37 95 1012.4
20260906021559 24 0.0 0.0 0.00 1.37 1.37 95 1012.2
20260906020519 24 0.0 0.0 0.00 1.37 1.37 94 1012.0
20260906015519 25 0.0 0.0 0.00 1.37 1.37 94 1012.1
20260906014519 25 0.0 0.0 0.00 1.37 1.37 94 1012.0
20260906013519 25 0.0 0.0 0.00 1.37 1.37 93 1011.8
20260906012559 25 0.0 0.0 0.00 1.37 1.37 93 1011.9
20260906011519 25 0.0 0.0 0.00 1.37 1.37 92 1011.6
20260906010559 26 0.0 0.0 0.00 1.37 1.37 92 1011.5
20260906005520 26 0.0 0.0 0.00 1.37 1.37 91 1011.4
20260906004519 26 0.0 0.0 0.00 1.37 1.37 90 1011.4
20260906003519 26 0.0 0.0 0.00 1.37 1.37 90 1011.5
20260906002519 27 0.0 0.0 0.00 1.37 1.37 89 1011.4
20260906001559 27 0.0 0.0 0.00 1.37 1.37 88 1011.5
20260906000519 27 0.0 4.8 0.00 1.37 1.37 87 1011.7
20260905235519 28 0.0 1.6 0.00 1.37 1.37 86 1011.8
20260905234519 28 0.0 0.0 0.00 1.37 1.37 85 1012.0
20260905233519 28 0.0 0.0 0.00 1.37 1.37 85 1012.2
20260905232519 29 0.0 0.0 0.00 1.37 1.37 82 1012.1
20260905231519 30 0.0 0.0 0.00 1.37 1.37 80 1012.2
20260905230559 30 0.0 0.0 0.00 1.37 1.37 79 1011.9
20260905225519 31 0.0 0.0 0.00 1.37 1.37 77 1011.8
20260905224519 31 0.0 0.0 0.00 1.37 1.37 76 1012.0
20260905223559 32 0.0 0.0 0.00 1.37 1.37 71 1011.7
20260905222519 34 0.0 0.0 0.00 1.37 1.37 63 1011.7
20260905221519 34 0.0 0.0 0.00 1.37 1.37 60 1012.0
20260905220519 35 0.0 0.0 0.00 1.37 1.37 60 1012.0
20260905215519 35 0.0 3.2 0.00 1.37 1.37 53 1011.9
20260905214519 36 0.0 0.0 0.00 1.37 1.37 54 1012.0
20260905213519 35 0.0 1.6 0.00 1.37 1.37 55 1012.1
20260905212519 35 0.0 4.8 0.00 1.37 1.37 52 1012.0
20260905211519 35 0.0 1.6 0.00 1.37 1.37 53 1012.0
20260905210559 35 225 1.6 4.8 0.00 1.37 1.37 52 1012.1
20260905205519 35 0.0 1.6 0.00 1.37 1.37 51 1012.2
20260905204519 35 0.0 1.6 0.00 1.37 1.37 53 1012.2
20260905203559 35 23 1.6 6.4 0.00 1.37 1.37 55 1012.4
20260905202519 35 0.0 1.6 0.00 1.37 1.37 55 1012.4
20260905201519 35 338 1.6 4.8 0.00 1.37 1.37 55 1012.6
20260905200559 35 0.0 4.8 0.00 1.37 1.37 52 1012.8
20260905195519 35 0.0 1.6 0.00 1.37 1.37 55 1012.9
20260905194519 35 225 1.6 3.2 0.00 1.37 1.37 55 1013.0
20260905193520 35 0.0 1.6 0.00 1.37 1.37 52 1013.1
20260905192519 35 0.0 1.6 0.00 1.37 1.37 52 1013.4
20260905191559 35 0.0 4.8 0.00 1.37 1.37 52 1013.5
20260905190519 34 0.0 3.2 0.00 1.37 1.37 51 1013.7
20260905185519 34 0.0 1.6 0.00 1.37 1.37 51 1013.7
20260905184559 34 248 1.6 4.8 0.00 1.37 1.37 54 1013.8
20260905183559 34 0.0 3.2 0.00 1.37 1.37 56 1013.8
20260905182519 33 0.0 1.6 0.00 1.37 1.37 58 1013.8
20260905181519 33 0.0 3.2 0.00 1.37 1.37 53 1014.1
20260905180519 33 0.0 3.2 0.00 1.37 1.37 54 1014.2
20260905175519 33 0.0 3.2 0.00 1.37 1.37 56 1014.3
20260905174519 32 0.0 4.8 0.00 1.37 1.37 54 1014.4
20260905173519 32 248 1.6 4.8 0.00 1.37 1.37 59 1014.5
20260905172519 32 0.0 3.2 0.00 1.37 1.37 57 1014.6
20260905171519 32 0.0 3.2 0.00 1.37 1.37 58 1014.6
20260905170519 31 0.0 1.6 0.00 1.37 1.37 60 1014.6
20260905165600 31 0.0 6.4 0.00 1.37 1.37 59 1014.8
20260905164519 31 0.0 3.2 0.00 1.37 1.37 61 1015.1
20260905163519 31 0.0 3.2 0.00 1.37 1.37 62 1015.2
20260905162519 30 0.0 1.6 0.00 1.37 1.37 63 1015.4
20260905161519 30 0.0 0.0 0.00 1.37 1.37 64 1015.0
20260905160519 29 0.0 4.8 0.00 1.37 1.37 70 1015.1
20260905155559 28 0.0 1.6 0.00 1.37 1.37 71 1015.0
20260905154559 28 270 1.6 6.4 0.00 1.37 1.37 71 1015.2
20260905153519 28 0.0 1.6 0.00 1.37 1.37 74 1015.1
20260905152519 27 225 1.6 6.4 0.00 1.37 1.37 75 1015.1
20260905151519 27 0.0 1.6 0.00 1.37 1.37 79 1015.1
20260905150519 26 0.0 1.6 0.00 1.37 1.37 81 1015.1
20260905145519 26 158 1.6 6.4 0.00 1.37 1.37 82 1015.1
20260905144559 25 0.0 1.6 0.00 1.37 1.37 86 1015.2
20260905143519 24 0.0 1.6 0.00 1.37 1.37 90 1015.4
20260905142519 23 0.0 1.6 0.00 1.37 1.37 94 1015.5
20260905141519 23 0.0 3.2 0.00 1.37 1.37 96 1015.8
20260905140519 22 0.0 3.2 0.00 1.37 1.37 97 1015.8
20260905135519 22 0.0 1.6 0.00 1.37 1.37 98 1015.7
20260905134559 22 0.0 1.6 0.00 1.37 1.37 98 1015.6
20260905133519 22 0.0 4.8 0.00 1.37 1.37 98 1015.8
20260905132519 22 0.0 3.2 0.00 1.37 1.37 99 1016.2
20260905131559 22 0.0 3.2 0.00 1.37 1.37 99 1016.2
20260905130519 22 0.0 1.6 0.00 1.37 1.37 99 1016.5
20260905125519 21 0.0 1.6 0.00 1.37 1.37 99 1016.1
20260905124559 21 0.0 1.6 0.08 1.37 1.37 99 1016.1
20260905123519 22 0.0 1.6 0.33 1.37 1.37 99 1016.1
20260905122519 22 0.0 6.4 0.33 1.37 1.37 99 1016.0
20260905121519 22 293 1.6 8.0 0.33 1.37 1.37 99 1015.9
20260905120519 22 0.0 0.0 0.33 1.37 1.37 99 1014.7
20260905115519 22 0.0 1.6 0.33 1.37 1.37 99 1014.4
20260905114519 22 0.0 3.2 0.25 1.30 1.30 99 1015.2
20260905113519 22 0.0 0.0 0.00 1.04 1.04 99 1015.1
20260905112519 22 0.0 1.6 0.00 1.04 1.04 99 1014.8
20260905111519 22 0.0 3.2 0.00 1.04 1.04 99 1014.8
20260905110559 22 0.0 1.6 0.00 1.04 1.04 99 1015.1